Regional Weather Roundup
Issued by NWS Newport/Morehead, NC

Current Version | Previous Version | Graphics & Text | Print | Product List | Glossary On
Versions: 1 2 3 4 5 6 7 8 9 10 11 12 13 14 15 16 17 18 19 20 21 22 23 24 25 26 27 28 29 30 31 32 33 34 35 36 37 38 39 40 41 42 43 44 45 46 47 48 49 50
000 ASUS42 KMHX 210010 RWRMHX WEATHER ROUNDUP FOR EASTERN NORTH CAROLINA NATIONAL WEATHER SERVICE NEWPORT/MOREHEAD CITY NC 700 PM EST SAT DEC 20 2014 NOTE: "FAIR" INDICATES FEW OR NO CLOUDS BELOW 12,000 FEET WITH NO SIGNIFICANT WEATHER AND/OR OBSTRUCTIONS TO VISIBILITY NCZ015>017-031-032-045>047-102-103-210100- NORTH COAST CITY SKY/WX TMP DP RH WIND PRES REMARKS EDENTON MOCLDY 37 32 82 CALM 30.29R ELIZABETH CITY CLOUDY 43 31 62 NE6 30.28R KITTY HAWK CLOUDY 41 34 74 N5 30.27R MANTEO CLOUDY 41 34 75 N7 30.28S $$ NCZ045>047-081-094-103-104-210100- CENTRAL COAST CITY SKY/WX TMP DP RH WIND PRES REMARKS FRISCO CLOUDY 42 37 82 NE5 30.27R SWANQUARTER N/A 41 N/A N/A N2 30.24S $$ NCZ095-097-098-100-101-210100- SOUTHERN COAST CITY SKY/WX TMP DP RH WIND PRES REMARKS BEAUFORT CLOUDY 40 37 89 N5 30.28R CEDAR ISLAND N/A 45 N/A N/A N3G10 30.30S JACKSONVILLE CLOUDY 40 37 89 NE6 30.28R PINEY ISLAND CLOUDY 45 36 70 NE6 30.27R WILMINGTON CLOUDY 41 39 93 NE8 30.26R $$ NCZ011>013-027>030-043-044-078>080-089-090>093-098-210100- COASTAL PLAIN CITY SKY/WX TMP DP RH WIND PRES REMARKS AHOSKIE CLOUDY 34 31 87 CALM 30.30R CLINTON CLOUDY 40 38 94 CALM 30.28R ELIZABETHTOWN MOCLDY 40 39 97 CALM 30.27R FOG GOLDSBORO CLOUDY 39 39 98 CALM 30.27R GREENVILLE CLOUDY 39 34 81 CALM 30.29S HAVELOCK MOCLDY 40 36 86 N5 30.29R KENANSVILLE MOCLDY 37 37 99 CALM 30.29R FOG KINSTON CLOUDY 39 37 93 CALM 30.29R NEW BERN CLOUDY 42 37 82 NE5 30.29R RICHLANDS CLOUDY 37 34 87 N5 30.29R ROCKY MOUNT CLOUDY 38 35 89 CALM 30.29R WASHINGTON CLOUDY 39 35 85 CALM 30.29R WHITEVILLE CLOUDY 42 39 89 NE3 30.26R $$ AMZ130-135-150-152-154-156-158-170-250-252-270-ANZ085-086-088-633-658-670-210100- MARINE OBSERVATIONS STATION/POSITION TIME TEMP WIND PRES WAVE SWELL AIR SEA DIR/SP/G HT/PER HT/PER (UTC) (F) (DEG/KT/KT) (MB) (FT/S) (FT/S) CHESAPEAKE LIGHT 2300 38 10/ 6/ 7 1025.8 64 E VA BEACH 0000 43 54 350/ 12/ 14 1024.6 2/ 6 2/ 6 DUCK 0000 41 46 10/ 9/ 10 1024.5 2 E DUCK 0000 47 N/A 2/ 6 10 NE DUCK 0000 52 N/A 3/ 6 OREGON INLET 0000 42 50 10/ 6/ 9 1025.1 13E OREGON INLT 0000 52 N/A 3/ 5 HATTERAS CG 0000 45 51 30/ 7/ 13 1025.1 DIAMOND BUOY 0000 47 1024.7 3/ 5 17 S OCRACOKE NOT AVBL CAPE LOOKOUT 2300 43 10/ 11/ 13 1024.4 BEAUFORT LAB 0000 42 52 30/ 3/ 7 1023.9 30 SE NEW RIVER 0000 49 61 50/ 16/ 19 1024.3 3/ 5 5 SE WRIGHTSVLE NOT AVBL 225 S CAPE HAT NOT AVBL 41 SE CHARLESTON 0000 62 70 30/ 17/ 21 1020.9 5/ 5 2/10 $$

USA.gov is the U.S. government's official web portal to all federal, state and local government web resources and services.